EST,Max TemperatureF,Mean TemperatureF,Min TemperatureF,Max Dew PointF,MeanDew PointF,Min DewpointF,Max Humidity, Mean Humidity, Min Humidity, Max Sea Level PressureIn, Mean Sea Level PressureIn, Min Sea Level PressureIn, Max VisibilityMiles, Mean VisibilityMiles, Min VisibilityMiles, Max Wind SpeedMPH, Mean Wind SpeedMPH, Max Gust SpeedMPH,PrecipitationIn, CloudCover, Events, WindDirDegrees
2011-12-1,45,37,28,34,27,22,75,62,49,30.27,30.24,30.17,10,9,5,17,7,21,0.04,3,Rain,218
2011-12-2,42,36,30,34,28,24,85,70,54,30.48,30.38,30.24,10,9,4,12,4,15,0.07,5,Rain,84
2011-12-3,52,42,32,40,34,25,83,72,61,30.41,30.24,29.98,10,8,5,21,11,28,0.22,5,Rain,163
2011-12-4,53,47,40,47,41,34,83,69,54,30.22,30.01,29.90,10,10,4,28,16,36,0.22,8,Rain,232
2011-12-5,40,37,33,36,30,22,85,75,64,30.32,30.26,30.19,10,10,10,14,4,18,T,4,Rain,27
2011-12-6,33,30,27,22,18,16,69,62,54,30.32,30.25,30.14,10,10,10,16,7,24,0.00,7,,20
2011-12-7,38,33,28,23,20,17,75,60,44,30.14,30.02,29.94,10,10,10,25,9,30,T,6,Rain,272
2011-12-8,40,34,28,25,22,19,69,59,48,30.19,30.14,30.05,10,10,10,21,9,25,0.00,5,,261
2011-12-9,35,31,26,27,19,8,85,64,42,30.38,30.21,30.14,10,5,1,16,8,21,0.10,8,Snow,295
2011-12-10,28,25,21,13,10,7,59,53,46,30.50,30.44,30.39,10,10,10,17,9,22,0.00,3,,243
2011-12-11,41,32,22,25,20,13,74,63,51,30.45,30.42,30.38,10,10,10,22,10,26,0.00,2,,187
2011-12-12,46,37,27,28,23,19,75,62,49,30.44,30.41,30.38,10,10,10,13,6,16,0.00,2,,179
2011-12-13,42,38,34,33,28,24,76,68,59,30.43,30.38,30.31,10,9,5,8,4,10,0.00,8,,162
2011-12-14,56,48,39,49,41,34,92,85,77,30.29,30.01,29.64,10,5,1,28,7,41,0.77,8,Rain,172
2011-12-15,56,46,35,51,38,19,86,69,52,30.15,29.76,29.55,10,10,5,32,23,45,0.10,8,Rain,256
2011-12-16,35,33,31,23,21,18,63,57,51,30.35,30.30,30.18,10,10,10,20,8,29,0.00,8,,330
2011-12-17,36,32,28,27,24,19,85,74,63,30.33,30.22,30.12,10,6,1,21,5,26,0.09,8,Snow,156
2011-12-18,43,38,32,34,26,21,70,62,54,30.22,30.12,29.89,10,10,8,23,10,33,0.00,5,,241
2011-12-19,47,41,35,38,32,21,71,63,54,30.21,29.99,29.84,10,10,10,30,16,37,0.00,5,,287
2011-12-20,37,32,26,30,25,20,82,69,56,30.23,30.06,29.86,10,9,2,13,6,16,0.02,6,Snow,86
2011-12-21,42,39,35,37,34,30,92,84,76,29.94,29.75,29.65,10,5,0,12,5,15,0.03,8,Fog-Rain,350
2011-12-22,41,37,32,36,30,20,79,70,61,30.22,30.07,29.94,10,10,8,15,8,22,T,8,Snow,335
2011-12-23,36,33,30,27,22,15,85,66,47,30.34,30.24,30.20,10,7,1,20,8,25,0.01,8,Snow,217
2011-12-24,40,36,31,30,25,23,78,66,54,30.35,30.24,30.12,10,10,5,25,12,32,T,4,Rain-Snow,206
2011-12-25,43,41,39,31,28,23,70,62,54,30.27,30.10,29.99,10,10,10,24,17,30,T,7,,279
2011-12-26,49,41,32,30,26,23,75,57,38,30.30,30.17,29.94,10,10,10,22,9,29,0.00,3,,216
2011-12-27,41,35,29,34,29,18,89,76,63,29.89,29.66,29.48,10,7,1,24,10,35,0.20,8,Rain-Snow,217
2011-12-28,32,28,24,20,16,12,75,64,53,30.07,30.00,29.91,10,10,10,17,7,25,0.00,7,,327
2011-12-29,43,36,28,34,29,20,78,70,62,29.89,29.66,29.52,10,10,7,21,9,26,0.01,7,Rain,207
2011-12-30,40,37,34,36,33,30,89,83,76,29.75,29.62,29.51,10,4,1,13,6,16,0.30,8,Rain,63
2011-12-31,44,39,33,32,31,28,82,70,58,30.00,29.89,29.73,10,9,7,17,7,24,0.00,5,,238